Change the Weather History Date:

Monday, March 19, 2012

  Actual Average Record
Temperature  
Mean Temperature 12 °F -  
Max Temperature 21 °F 38 °F 51 °F (2004)
Min Temperature 2 °F 12 °F -6 °F (1979)
Degree Days  
Heating Degree Days 53 40  
Month to date heating degree days 775 804  
Since 1 July heating degree days 8281 8514  
Cooling Degree Days 0 0  
Month to date cooling degree days 0 0  
Year to date cooling degree days 0 0  
Moisture  
Dew Point 2 °F    
Average Humidity 58    
Maximum Humidity 88    
Minimum Humidity 28    
Precipitation  
Precipitation T in 0.03 in 0.52 in (2003)
Month to date precipitation 0.22 0.55  
Year to date precipitation 2.40 1.87  
Sea Level Pressure  
Sea Level Pressure 29.53 in    
Wind  
Wind Speed 8 mph (North)    
Max Wind Speed 22 mph    
Max Gust Speed 28 mph    
Visibility 10 miles    
Events      
T = Trace of Precipitation, MM = Missing Value Source: NWS Daily Summary

Daily Weather History Graph

Daily Weather History Graph

Search for Another Location

Airport or City:

Trip Planner

Search our weather history database for the weather conditions in past years. The results will help you decide how hot, cold, wet, or windy it might be!

Date:

Astronomy

Mar. 19, 2012 Rise Set
Actual Time 7:09 AM MDT 7:16 PM MDT
Civil Twilight 6:42 AM MDT 7:43 PM MDT
Nautical Twilight 6:11 AM MDT 8:14 PM MDT
Astronomical Twilight 5:39 AM MDT 8:46 PM MDT
Moon 5:22 AM MDT (3/19) 4:48 PM MDT (3/19)
Length of Visible Light 13h 00m
Length of Day
12h 07m
Waning Crescent, 8% of the Moon is Illuminated
Mar 19
Waning Crescent
Mar 22
New
Mar 30
First Quarter
Apr 6
Full
Apr 13
Last Quarter

Hourly Weather History & Observations

Time (MDT) Temp. Windchill Dew Point Humidity Pressure Visibility Wind Dir Wind Speed Gust Speed Precip Events Conditions
12:53 AM 15.1 °F 3.3 °F 5.0 °F 64% 29.41 in 10.0 mi South 9.2 mph - N/A   Overcast
1:53 AM 12.0 °F 4.1 °F 6.1 °F 77% 29.45 in 10.0 mi South 4.6 mph - 0.00 in   Partly Cloudy
2:53 AM 10.9 °F - 5.0 °F 77% 29.44 in 10.0 mi Calm Calm - N/A   Mostly Cloudy
3:53 AM 7.0 °F -3.3 °F 3.0 °F 84% 29.43 in 10.0 mi East 5.8 mph - N/A   Clear
4:53 AM 8.1 °F - 1.9 °F 76% 29.44 in 10.0 mi Calm Calm - N/A   Clear
5:53 AM 7.0 °F -3.3 °F -0.0 °F 73% 29.46 in 10.0 mi ESE 5.8 mph - N/A   Clear
6:53 AM 9.0 °F - -2.0 °F 61% 29.46 in 10.0 mi Calm Calm - N/A   Clear
7:53 AM 9.0 °F 0.6 °F -0.9 °F 64% 29.47 in 10.0 mi ENE 4.6 mph - N/A   Clear
8:53 AM 14.0 °F 2.9 °F -0.0 °F 54% 29.47 in 10.0 mi NE 8.1 mph - N/A   Clear
9:53 AM 17.1 °F 8.7 °F -2.9 °F 41% 29.48 in 10.0 mi NNE 5.8 mph - N/A   Clear
10:53 AM 19.0 °F 6.8 °F 1.0 °F 46% 29.49 in 10.0 mi NNW 11.5 mph 17.3 mph N/A   Scattered Clouds
11:53 AM 18.0 °F 7.7 °F -0.9 °F 44% 29.51 in 10.0 mi NNE 8.1 mph 16.1 mph N/A   Overcast
12:53 PM 18.0 °F 4.2 °F -0.9 °F 44% 29.50 in 10.0 mi North 13.8 mph 18.4 mph N/A   Overcast
1:53 PM 19.0 °F 7.5 °F -9.0 °F 29% 29.50 in 10.0 mi NW 10.4 mph 16.1 mph N/A   Overcast
2:53 PM 19.9 °F 6.7 °F -2.9 °F 37% 29.48 in 10.0 mi NNW 13.8 mph - N/A   Overcast
3:13 PM 19.4 °F 8.6 °F 1.4 °F 46% 29.51 in 10.0 mi NNE 9.2 mph - N/A   Overcast
3:53 PM 18.0 °F 3.1 °F 3.9 °F 54% 29.56 in 10.0 mi North 16.1 mph 27.6 mph N/A   Overcast
4:53 PM 19.0 °F 13.9 °F -0.0 °F 43% 29.56 in 10.0 mi NNW 3.5 mph - 0.00 in   Overcast
5:53 PM 17.1 °F 3.6 °F 3.0 °F 54% 29.60 in 10.0 mi NNW 12.7 mph - N/A   Mostly Cloudy
6:53 PM 17.1 °F 4.3 °F 3.9 °F 56% 29.60 in 10.0 mi NNW 11.5 mph - N/A   Clear
7:53 PM 14.0 °F 0.5 °F 6.1 °F 71% 29.64 in 10.0 mi North 11.5 mph 18.4 mph N/A   Partly Cloudy
8:53 PM 14.0 °F 8.2 °F 6.1 °F 71% 29.66 in 10.0 mi North 3.5 mph - N/A   Mostly Cloudy
9:53 PM 12.0 °F 0.5 °F 7.0 °F 80% 29.68 in 10.0 mi North 8.1 mph - N/A   Overcast
10:53 PM 12.0 °F 2.7 °F 7.0 °F 80% 29.68 in 10.0 mi NNE 5.8 mph - N/A   Overcast
11:53 PM 12.0 °F 2.7 °F 7.0 °F 80% 29.71 in 10.0 mi North 5.8 mph - 0.00 in   Overcast